Voltar ao catálogo

SKYBEE-A01

AtivoComunicaçõesSSO
NORAD 62671·PAYLOAD·🇩🇪 Germany

Lançado Jan 14, 2025 de Vandenberg Space Force Base

Loading…

Próximas Passagens (próximas 24 horas)

TLE

AtualizadoSource: Space-Track

Época: Sep 14, 2026, 13:05 UTC

1 62671U 25009BQ  26257.54567649  .00001854  00000-0  85744-4 0  9996
2 62671  97.3927 334.5401 0006019  35.9893 324.1747 15.21370973149925

Acompanhe SKYBEE-A01 em tempo real com AllMySat

Download on the App Store